sat.trackr.live / text

‹ back to catalog

STARLINK-34256

NORAD 64249 · 2025-119S

PAYLOAD ACTIVE UNKNOWN

§ Identity

Operator
Country
US
Launch date
2025-06-03
Launch site
AFETR
Launch vehicle
Mass (kg)
RCS (m²)

Purposes: comms

External: N2YO · Heavens-Above · Gunter

§ Orbital elements

Epoch: 2026-05-24T16:22:37.214688Z

Period
94.27 min
Inclination
43.0011°
Eccentricity
0.0001473
Mean motion
15.27577933 rev/d
Perigee alt
482.0 km
Apogee alt
484.1 km
Semi-major
6,861.2 km
B*
6.4711e-4
RAAN
237.6874°
Arg perigee
276.0226°
Mean anomaly
84.0458°
Rev number
5,579

§ Raw data

STARLINK-342561 64249U 25119S   26144.68237517  .00017586  00000+0  64711-3 0  99972 64249  43.0011 237.6874 0001473 276.0226  84.0458 15.27577933 55797

JSON: /api/v1/satellites/64249 · /tle

For live sub-satellite position, see the globe view (requires WebGL).

§ Visibility from observer

Set your observer location to see the next 7 days of passes ≥ 10°. The values pass through the URL so the page stays shareable.

No JS? Fill the form by hand. The geolocation button needs JavaScript.